User: anonymous   Login
Location: Unspecified
(0.0000°N, 0.0000°E)
Time: 13:38:07
(UTC+00:00)
Language:

CARTOSAT 2D - Orbit

View from above orbital plane
View from above orbital plane
View from above satellite
View from above satellite

Ground track
Ground track

The orbit data is extracted from the following two-line orbital elements,

1 41948U 17008A   18319.39657804  .00000609  00000-0  32093-4 0  9992
2 41948  97.4272  18.7884 0005685 205.6848 154.4101 15.19282793 96897
Epoch (UTC): 15 November 2018 09:31:04
Eccentricity: 0.0005685
inclination: 97.4272°
perigee height: 504 km
apogee height: 512 km
right ascension of ascending node: 18.7884°
argument of perigee: 205.6848°
revolutions per day: 15.19282793
mean anomaly at epoch: 154.4101°
orbit number at epoch: 9689

The dashed part of the orbit path shows where the satellite is in the earth's shadow,  

DLR